Time,TemperatureF,DewpointF,PressureIn,WindDirection,WindDirectionDegrees,WindSpeedMPH,WindSpeedGustMPH,Humidity,HourlyPrecipIn,Conditions,Clouds,dailyrainin,SoftwareType,DateUTC
2013-08-03 00:13:00,70.2,57.0,29.94,WSW,250,2.0,12.0,63,0.00,,,0.00,weatherlink.com 1.10,2013-08-03 04:13:00,
2013-08-03 00:28:00,70.2,56.0,29.93,SW,235,4.0,11.0,62,0.00,,,0.00,weatherlink.com 1.10,2013-08-03 04:28:00,
2013-08-03 00:43:00,70.1,56.0,29.93,WSW,244,4.0,13.0,62,0.00,,,0.00,weatherlink.com 1.10,2013-08-03 04:43:00,
2013-08-03 00:58:00,70.1,56.0,29.93,WSW,243,0.0,10.0,62,0.00,,,0.00,weatherlink.com 1.10,2013-08-03 04:58:00,
2013-08-03 01:13:00,69.5,56.0,29.92,NW,313,1.0,6.0,63,0.00,,,0.00,weatherlink.com 1.10,2013-08-03 05:13:00,
2013-08-03 01:28:00,69.3,56.0,29.92,WNW,290,0.0,5.0,63,0.00,,,0.00,weatherlink.com 1.10,2013-08-03 05:28:00,
2013-08-03 01:43:00,69.6,56.0,29.93,West,263,1.0,4.0,62,0.00,,,0.00,weatherlink.com 1.10,2013-08-03 05:43:00,
2013-08-03 01:58:00,69.7,56.0,29.92,West,265,0.0,5.0,62,0.00,,,0.00,weatherlink.com 1.10,2013-08-03 05:58:00,
2013-08-03 02:13:00,69.3,56.0,29.91,NNW,338,0.0,4.0,62,0.00,,,0.00,weatherlink.com 1.10,2013-08-03 06:13:00,
2013-08-03 02:28:00,69.3,56.0,29.91,SW,236,0.0,3.0,62,0.00,,,0.00,weatherlink.com 1.10,2013-08-03 06:28:00,
2013-08-03 02:43:00,69.3,56.0,29.91,SSW,213,0.0,3.0,62,0.00,,,0.00,weatherlink.com 1.10,2013-08-03 06:43:00,
2013-08-03 02:58:00,68.6,56.0,29.91,WSW,240,1.0,5.0,64,0.00,,,0.00,weatherlink.com 1.10,2013-08-03 06:58:00,
2013-08-03 03:13:00,68.0,57.0,29.91,WSW,245,2.0,8.0,68,0.00,,,0.00,weatherlink.com 1.10,2013-08-03 07:13:00,
2013-08-03 03:28:00,67.2,56.0,29.91,WSW,244,0.0,5.0,68,0.00,,,0.00,weatherlink.com 1.10,2013-08-03 07:28:00,
2013-08-03 03:43:00,67.3,56.0,29.91,West,260,3.0,7.0,68,0.00,,,0.00,weatherlink.com 1.10,2013-08-03 07:43:00,
2013-08-03 03:58:00,68.3,56.0,29.91,WSW,240,1.0,8.0,66,0.00,,,0.00,weatherlink.com 1.10,2013-08-03 07:58:00,
2013-08-03 04:13:00,68.2,56.0,29.91,West,273,2.0,5.0,66,0.00,,,0.00,weatherlink.com 1.10,2013-08-03 08:13:00,
2013-08-03 04:28:00,67.9,57.0,29.91,West,275,1.0,5.0,68,0.00,,,0.00,weatherlink.com 1.10,2013-08-03 08:28:00,
2013-08-03 04:43:00,67.7,57.0,29.90,West,261,1.0,9.0,69,0.00,,,0.00,weatherlink.com 1.10,2013-08-03 08:43:00,
2013-08-03 04:58:00,67.9,57.0,29.90,SW,236,1.0,6.0,68,0.00,,,0.00,weatherlink.com 1.10,2013-08-03 08:58:00,
2013-08-03 05:13:00,67.9,57.0,29.90,WSW,240,1.0,5.0,69,0.00,,,0.00,weatherlink.com 1.10,2013-08-03 09:13:00,
2013-08-03 05:28:00,66.7,58.0,29.91,WSW,252,1.0,6.0,73,0.00,,,0.00,weatherlink.com 1.10,2013-08-03 09:28:00,
2013-08-03 05:43:00,66.7,58.0,29.91,SW,234,7.0,11.0,73,0.00,,,0.00,weatherlink.com 1.10,2013-08-03 09:43:00,
2013-08-03 05:58:00,67.4,58.0,29.92,WSW,240,2.0,8.0,71,0.00,,,0.00,weatherlink.com 1.10,2013-08-03 09:58:00,
2013-08-03 06:13:00,67.2,57.0,29.91,SW,235,2.0,7.0,71,0.00,,,0.00,weatherlink.com 1.10,2013-08-03 10:13:00,
2013-08-03 06:28:00,67.5,57.0,29.91,West,260,2.0,5.0,70,0.00,,,0.00,weatherlink.com 1.10,2013-08-03 10:28:00,
2013-08-03 06:43:00,67.6,57.0,29.91,WSW,245,0.0,6.0,69,0.00,,,0.00,weatherlink.com 1.10,2013-08-03 10:43:00,
2013-08-03 06:58:00,67.8,57.0,29.91,WSW,243,0.0,3.0,68,0.00,,,0.00,weatherlink.com 1.10,2013-08-03 10:58:00,
2013-08-03 07:13:00,67.9,57.0,29.91,SW,222,3.0,6.0,68,0.00,,,0.00,weatherlink.com 1.10,2013-08-03 11:13:00,
2013-08-03 07:28:00,67.4,57.0,29.91,SW,223,3.0,7.0,69,0.00,,,0.00,weatherlink.com 1.10,2013-08-03 11:28:00,
2013-08-03 07:43:00,67.4,56.0,29.90,SW,227,3.0,5.0,68,0.00,,,0.00,weatherlink.com 1.10,2013-08-03 11:43:00,
2013-08-03 07:58:00,67.9,58.0,29.91,SW,234,0.0,6.0,70,0.00,,,0.00,weatherlink.com 1.10,2013-08-03 11:58:00,
2013-08-03 08:13:00,67.3,59.0,29.90,SW,234,0.0,0.0,75,0.00,,,0.00,weatherlink.com 1.10,2013-08-03 12:13:00,
2013-08-03 08:28:00,66.9,60.0,29.91,SW,234,0.0,0.0,78,0.00,,,0.00,weatherlink.com 1.10,2013-08-03 12:28:00,
2013-08-03 08:43:00,66.4,58.0,29.91,SSW,211,4.0,4.0,75,0.00,,,0.00,weatherlink.com 1.10,2013-08-03 12:43:00,
2013-08-03 08:58:00,67.1,57.0,29.92,WSW,248,2.0,7.0,70,0.00,,,0.00,weatherlink.com 1.10,2013-08-03 12:58:00,
2013-08-03 09:13:00,66.3,58.0,29.92,WSW,257,4.0,6.0,74,0.00,,,0.00,weatherlink.com 1.10,2013-08-03 13:13:00,
2013-08-03 09:28:00,65.2,59.0,29.93,SW,227,3.0,5.0,79,0.00,,,0.00,weatherlink.com 1.10,2013-08-03 13:28:00,
2013-08-03 09:43:00,65.3,60.0,29.93,SW,236,0.0,1.0,83,0.00,,,0.00,weatherlink.com 1.10,2013-08-03 13:43:00,
2013-08-03 09:58:00,65.3,61.0,29.93,SW,236,0.0,0.0,86,0.00,,,0.00,weatherlink.com 1.10,2013-08-03 13:58:00,
2013-08-03 10:13:00,65.7,60.0,29.93,SW,236,0.0,0.0,82,0.00,,,0.00,weatherlink.com 1.10,2013-08-03 14:13:00,
2013-08-03 10:28:00,66.1,61.0,29.93,SW,236,0.0,1.0,83,0.00,,,0.00,weatherlink.com 1.10,2013-08-03 14:28:00,
2013-08-03 10:43:00,66.0,61.0,29.92,NE,36,0.0,0.0,84,0.00,,,0.00,weatherlink.com 1.10,2013-08-03 14:43:00,
2013-08-03 10:58:00,66.7,62.0,29.92,NE,36,0.0,0.0,84,0.00,,,0.00,weatherlink.com 1.10,2013-08-03 14:58:00,
2013-08-03 11:13:00,67.8,61.0,29.92,NNW,327,0.0,2.0,78,0.00,,,0.00,weatherlink.com 1.10,2013-08-03 15:13:00,
2013-08-03 11:28:00,68.7,63.0,29.92,West,276,1.0,2.0,82,0.00,,,0.00,weatherlink.com 1.10,2013-08-03 15:28:00,
2013-08-03 11:43:00,68.8,59.0,29.91,SW,214,0.0,4.0,72,0.00,,,0.00,weatherlink.com 1.10,2013-08-03 15:43:00,
2013-08-03 11:58:00,69.8,62.0,29.91,WSW,252,0.0,1.0,77,0.00,,,0.00,weatherlink.com 1.10,2013-08-03 15:58:00,
2013-08-03 12:13:00,70.2,60.0,29.90,WSW,245,3.0,4.0,69,0.00,,,0.00,weatherlink.com 1.10,2013-08-03 16:13:00,
2013-08-03 12:29:00,70.1,58.0,29.91,SSW,201,0.0,7.0,65,0.00,,,0.00,weatherlink.com 1.10,2013-08-03 16:29:00,
2013-08-03 12:44:00,70.4,59.0,29.91,WSW,246,0.0,6.0,67,0.00,,,0.00,weatherlink.com 1.10,2013-08-03 16:44:00,
2013-08-03 12:59:00,69.7,59.0,29.91,West,277,3.0,5.0,68,0.00,,,0.00,weatherlink.com 1.10,2013-08-03 16:59:00,
2013-08-03 13:13:00,69.6,59.0,29.91,SW,234,2.0,5.0,69,0.00,,,0.00,weatherlink.com 1.10,2013-08-03 17:13:00,
2013-08-03 13:29:00,70.1,60.0,29.91,NW,312,1.0,6.0,71,0.00,,,0.00,weatherlink.com 1.10,2013-08-03 17:29:00,
2013-08-03 13:44:00,69.9,60.0,29.91,WSW,239,1.0,4.0,70,0.00,,,0.00,weatherlink.com 1.10,2013-08-03 17:44:00,
2013-08-03 13:59:00,69.8,61.0,29.90,WSW,241,2.0,4.0,73,0.00,,,0.00,weatherlink.com 1.10,2013-08-03 17:59:00,
2013-08-03 14:14:00,70.7,60.0,29.90,SW,236,1.0,5.0,68,0.00,,,0.00,weatherlink.com 1.10,2013-08-03 18:14:00,
2013-08-03 14:29:00,72.3,60.0,29.89,WSW,240,4.0,4.0,65,0.00,,,0.00,weatherlink.com 1.10,2013-08-03 18:29:00,
2013-08-03 14:44:00,73.0,60.0,29.89,SW,220,0.0,4.0,65,0.00,,,0.00,weatherlink.com 1.10,2013-08-03 18:44:00,
2013-08-03 14:59:00,73.7,63.0,29.89,WSW,247,0.0,2.0,69,0.00,,,0.00,weatherlink.com 1.10,2013-08-03 18:59:00,
2013-08-03 15:14:00,74.0,62.0,29.89,South,189,1.0,4.0,66,0.00,,,0.00,weatherlink.com 1.10,2013-08-03 19:14:00,
2013-08-03 15:29:00,73.5,61.0,29.88,SSE,155,2.0,5.0,66,0.00,,,0.00,weatherlink.com 1.10,2013-08-03 19:29:00,
2013-08-03 15:44:00,73.7,63.0,29.88,South,171,0.0,3.0,70,0.00,,,0.00,weatherlink.com 1.10,2013-08-03 19:44:00,
2013-08-03 15:59:00,73.6,64.0,29.88,SW,229,0.0,3.0,71,0.00,,,0.00,weatherlink.com 1.10,2013-08-03 19:59:00,
2013-08-03 16:14:00,74.2,64.0,29.87,SE,138,4.0,5.0,70,0.00,,,0.00,weatherlink.com 1.10,2013-08-03 20:14:00,
2013-08-03 16:29:00,74.3,64.0,29.88,SW,223,0.0,0.0,70,0.00,,,0.00,weatherlink.com 1.10,2013-08-03 20:29:00,
2013-08-03 16:44:00,73.8,64.0,29.88,SW,223,0.0,2.0,72,0.00,,,0.00,weatherlink.com 1.10,2013-08-03 20:44:00,
2013-08-03 16:59:00,73.3,65.0,29.88,SW,223,0.0,1.0,74,0.00,,,0.00,weatherlink.com 1.10,2013-08-03 20:59:00,
2013-08-03 17:14:00,71.9,62.0,29.88,SW,236,0.0,5.0,72,0.00,,,0.00,weatherlink.com 1.10,2013-08-03 21:14:00,
2013-08-03 17:29:00,70.7,62.0,29.88,South,189,3.0,7.0,74,0.00,,,0.00,weatherlink.com 1.10,2013-08-03 21:29:00,
2013-08-03 17:44:00,70.5,63.0,29.89,SSW,204,3.0,6.0,78,0.00,,,0.00,weatherlink.com 1.10,2013-08-03 21:44:00,
2013-08-03 17:59:00,70.1,63.0,29.89,SSE,163,4.0,6.0,79,0.00,,,0.00,weatherlink.com 1.10,2013-08-03 21:59:00,
2013-08-03 18:14:00,69.7,60.0,29.89,ESE,103,2.0,5.0,71,0.00,,,0.00,weatherlink.com 1.10,2013-08-03 22:14:00,
2013-08-03 18:29:00,69.3,60.0,29.89,East,96,2.0,8.0,71,0.00,,,0.00,weatherlink.com 1.10,2013-08-03 22:29:00,
2013-08-03 18:44:00,68.9,60.0,29.89,NE,46,0.0,8.0,72,0.00,,,0.00,weatherlink.com 1.10,2013-08-03 22:44:00,
2013-08-03 18:59:00,68.6,60.0,29.89,SSE,164,0.0,4.0,73,0.00,,,0.00,weatherlink.com 1.10,2013-08-03 22:59:00,
2013-08-03 19:14:00,68.7,59.0,29.88,SSW,196,3.0,3.0,72,0.00,,,0.00,weatherlink.com 1.10,2013-08-03 23:14:00,
2013-08-03 19:29:00,68.9,59.0,29.89,North,5,2.0,6.0,71,0.00,,,0.00,weatherlink.com 1.10,2013-08-03 23:29:00,
2013-08-03 19:44:00,69.1,59.0,29.88,East,87,0.0,4.0,71,0.00,,,0.00,weatherlink.com 1.10,2013-08-03 23:44:00,
2013-08-03 19:59:00,69.3,60.0,29.89,SW,215,1.0,8.0,71,0.00,,,0.00,weatherlink.com 1.10,2013-08-03 23:59:00,
2013-08-03 20:14:00,69.4,60.0,29.88,WNW,289,3.0,10.0,71,0.00,,,0.00,weatherlink.com 1.10,2013-08-04 00:14:00,
2013-08-03 20:29:00,69.0,60.0,29.88,SW,233,4.0,13.0,72,0.00,,,0.00,weatherlink.com 1.10,2013-08-04 00:29:00,
2013-08-03 20:44:00,68.6,60.0,29.89,SE,127,1.0,8.0,73,0.00,,,0.00,weatherlink.com 1.10,2013-08-04 00:44:00,
2013-08-03 20:59:00,67.8,60.0,29.89,SSE,150,0.0,0.0,76,0.00,,,0.00,weatherlink.com 1.10,2013-08-04 00:59:00,
2013-08-03 21:14:00,66.4,60.0,29.90,SW,216,1.0,4.0,79,0.00,,,0.00,weatherlink.com 1.10,2013-08-04 01:14:00,
2013-08-03 21:29:00,67.9,60.0,29.90,SW,224,5.0,10.0,75,0.00,,,0.00,weatherlink.com 1.10,2013-08-04 01:29:00,
2013-08-03 21:44:00,67.6,61.0,29.91,NE,42,1.0,3.0,78,0.00,,,0.00,weatherlink.com 1.10,2013-08-04 01:44:00,
2013-08-03 21:59:00,67.1,60.0,29.92,NE,54,0.0,3.0,79,0.00,,,0.00,weatherlink.com 1.10,2013-08-04 01:59:00,
2013-08-03 22:14:00,66.8,60.0,29.90,NE,44,0.0,1.0,79,0.00,,,0.00,weatherlink.com 1.10,2013-08-04 02:14:00,
2013-08-03 22:29:00,66.0,60.0,29.90,NE,44,0.0,2.0,81,0.00,,,0.00,weatherlink.com 1.10,2013-08-04 02:29:00,
2013-08-03 22:44:00,65.0,60.0,29.91,WNW,290,0.0,2.0,84,0.00,,,0.00,weatherlink.com 1.10,2013-08-04 02:44:00,
2013-08-03 22:59:00,65.1,60.0,29.92,WSW,248,0.0,1.0,84,0.00,,,0.00,weatherlink.com 1.10,2013-08-04 02:59:00,
2013-08-03 23:14:00,65.5,60.0,29.91,ENE,59,0.0,4.0,82,0.00,,,0.00,weatherlink.com 1.10,2013-08-04 03:14:00,
2013-08-03 23:29:00,64.6,60.0,29.91,South,187,0.0,2.0,85,0.00,,,0.00,weatherlink.com 1.10,2013-08-04 03:29:00,
2013-08-03 23:44:00,63.8,60.0,29.91,SW,223,0.0,1.0,86,0.00,,,0.00,weatherlink.com 1.10,2013-08-04 03:44:00,
2013-08-03 23:59:00,64.1,59.0,29.91,NE,49,6.0,7.0,84,0.00,,,0.00,weatherlink.com 1.10,2013-08-04 03:59:00,